#timestamp,LO_Frequency,Hit 
1503352815.0,286047007.4,N
1503352815.9,286047007.4,P
1503352835.8,286046998.5,P
1503352855.6,286046998.3,N
1503352875.4,286047000.7,N
1503352895.3,286047000.8,N
1503352915.1,286046998.3,N
1503352916.0,286046998.3,N
1503352935.8,286046998.7,N
1503352955.7,286046998.3,N
1503352975.5,286047002.4,N
1503352995.3,286047001.8,N
1503353015.1,286047003.9,N
1503353035.9,286047003.3,N
1503353055.7,286047002.9,N
1503353075.5,286047005.3,N
1503353095.4,286047002.9,N
1503353115.2,286047004.4,N
1503353135.0,286047004.1,N
1503353135.9,286047004.1,N
1503353155.8,286047003.8,N
1503353175.6,286047003.2,N
1503353195.4,286047005.5,N
1503353215.3,286047006.0,N
1503353235.1,286047005.0,N
1503353236.0,286047005.0,N
1503353255.8,286047004.8,N
1503353275.7,286047005.0,N
1503353295.5,286047005.0,N
1503353315.3,286047006.1,N
1503353335.1,286047006.6,N
1503353355.9,286047008.6,P
1503353375.7,286047005.1,N
1503353395.6,286047003.3,N
1503353415.4,286047005.6,N
1503353435.2,286047003.1,N
1503353455.1,286047006.0,P
1503353456.0,286047006.0,P
1503353475.8,286046998.1,P
1503353495.6,286047000.9,N
1503353515.5,286047001.0,N
1503353535.3,286047002.5,N
1503353555.1,286047001.9,N
1503353575.8,286047004.1,N
1503353595.7,286047003.9,N
1503353615.5,286047003.1,N
1503353635.3,286047004.3,N
1503353655.2,286047002.9,N
1503353675.9,286047003.4,N
1503353695.7,286047005.4,N
1503353715.6,286047005.8,N
1503353735.4,286047004.0,N
1503353755.2,286047005.5,N
1503353775.1,286047005.8,N
1503353776.0,286047005.8,N
1503353795.8,286047003.1,N
1503353815.6,286047006.0,N
1503353835.4,286047003.3,N
1503353855.3,286047005.2,N
1503353875.1,286047005.1,N
1503353895.8,286047005.7,N
1503353915.7,286047004.6,N
1503353935.5,286047003.4,N
1503353955.3,286047001.6,N
1503353975.2,286047001.5,N
1503353995.9,286047003.6,N
1503354015.7,286047004.3,N
1503354035.6,286047007.2,P
1503354055.4,286047003.1,N
1503354075.2,286047004.4,N
1503354095.1,286046999.7,N
1503354096.0,286046999.7,N
1503354115.8,286047002.0,N
1503354135.6,286046999.8,N
1503354155.5,286046999.8,N
1503354175.3,286046999.8,N
1503354195.1,286047004.7,N
1503354215.9,286047003.9,N
1503354235.7,286047003.2,N
1503354255.5,286047007.3,P
1503354275.4,286047005.2,N
1503354295.2,286047004.4,N
1503354315.0,286047000.7,N
1503354315.9,286047000.7,N
1503354335.8,286046998.7,N
1503354355.6,286047000.1,N
1503354375.4,286047000.1,N
1503354395.2,286047002.4,N
1503354415.1,286047001.6,N
1503354416.0,286047001.6,N
1503354435.8,286047002.1,N
1503354455.6,286047002.5,N
1503354475.5,286047004.3,N
1503354495.3,286047002.1,N
1503354515.1,286047000.3,N
1503354535.9,286046999.8,N
1503354555.7,286047002.2,N
1503354575.5,286047002.1,N
1503354595.4,286047002.0,N
1503354615.2,286047001.6,N
1503354635.0,286047003.4,N
1503354635.9,286047003.4,N
1503354655.8,286047001.3,N
1503354675.6,286047003.5,N
1503354695.4,286047001.8,N
1503354715.2,286047003.9,N
1503354735.1,286047004.6,N
1503354736.0,286047004.6,N
1503354755.8,286047004.3,N
1503354775.6,286047003.5,N
1503354795.5,286047002.9,N
1503354815.3,286047004.1,N
1503354835.1,286047004.6,N
1503354855.9,286047006.1,P
1503354875.7,286047004.4,N
1503354895.5,286047000.3,N
1503354915.4,286047004.4,N
1503354935.2,286047002.0,N
1503354955.0,286047002.8,N
1503354955.9,286047002.8,N
1503354975.8,286047004.1,N
1503354995.6,286047006.4,P
1503355015.4,286047005.4,P
1503355035.3,286047005.4,P
1503355055.1,286047003.5,P
1503355075.8,286046999.6,N
1503355095.7,286046995.6,N
1503355115.5,286046995.5,N
1503355135.3,286046994.9,N
1503355155.2,286046995.2,N
1503355175.9,286046997.8,N
1503355195.7,286046999.4,N
1503355215.6,286046997.1,N
1503355235.4,286046999.4,N
1503355255.2,286047001.1,N
1503355275.1,286047000.7,N
1503355276.0,286047000.7,N
1503355295.8,286046998.4,N
1503355315.6,286046998.2,N
1503355335.4,286046999.3,N
1503355355.3,286046997.6,N
1503355375.1,286046995.7,N
1503355395.8,286046999.4,N
1503355415.7,286046999.2,N
1503355435.5,286046999.5,N
1503355455.3,286046997.0,N
1503355475.2,286047001.2,N
1503355495.9,286046998.3,N
1503355515.7,286046997.4,N
1503355535.6,286046998.1,N
1503355555.4,286047000.2,N
1503355575.2,286047000.3,N
1503355595.1,286046998.4,N
1503355596.0,286046998.4,N
1503355615.8,286046998.7,N
1503355635.6,286047002.8,N
1503355655.4,286047002.1,N
1503355675.3,286047000.0,N
1503355695.1,286047002.8,N
1503355715.8,286047001.7,N
1503355735.7,286047002.6,N
1503355755.5,286047004.1,N
1503355775.3,286047005.3,N
1503355795.2,286047003.6,N
1503355815.9,286047001.7,N
1503355835.7,286047003.8,N
1503355855.6,286047005.1,N
1503355875.4,286047007.4,N
1503355895.2,286047004.7,N
1503355915.1,286047004.9,N
1503355916.0,286047004.9,N
1503355935.8,286047007.3,N
1503355955.6,286047006.1,N
1503355975.5,286047008.7,N
1503355995.3,286047007.2,N
1503356015.1,286047007.1,N
1503356035.8,286047005.2,N
1503356055.7,286047007.0,N
1503356075.5,286047007.2,N
1503356095.3,286047006.2,N
1503356115.2,286047005.3,N
1503356135.9,286047006.4,N
1503356155.7,286047012.4,P
1503356175.6,286047003.3,N
1503356195.4,286047002.8,N
1503356215.2,286047002.4,N
1503356235.1,286047001.5,N
1503356236.0,286047001.5,N
1503356255.8,286047000.2,N
1503356275.6,286046999.7,N
1503356295.5,286047002.8,N
1503356315.3,286047001.6,N
1503356335.1,286047005.3,N
1503356355.9,286047006.8,N
1503356375.7,286047004.6,N
1503356395.5,286047010.8,P
